RH
54 58 62 66 68 69 66 59 58 76 94 96 96 98 98 93 87 93 100 100 100 100 100 100 100 101 99 96 98 100 99 99 100 100 100 100 100 99 100 101 97 95 89 72 60 56 52 51 51 49 49 52 53 53 50 48 46 42 41 42 42 38 32
60 64 69 74 77 77 74 72 79 91 96 91 87 89 96 96 91 94 100 100 100 100 100 100 100 100 100 99 100 100 99 100 100 100 100 99 100 100 99 100 98 95 94 84 69 60 54 48 47 48 48 49 50 50 47 47 46 44 43 42 42 45 42
68 73 78 82 85 84 83 86 90 90 85 83 82 81 82 90 95 98 100 100 100 100 100 101 100 99 100 100 100 100 100 101 100 100 101 99 100 101 100 100 98 94 92 88 79 69 59 50 46 47 46 46 47 49 47 46 45 44 43 43 43 48 50
72 76 78 80 86 90 89 86 79 72 72 76 82 80 72 75 89 99 101 99 100 100 100 100 100 100 100 100 100 100 100 100 100 100 100 100 100 100 100 100 99 96 92 89 85 76 67 58 50 47 47 46 48 50 49 47 48 48 47 46 46 47 51
72 76 78 78 83 88 85 78 69 66 68 69 72 76 71 69 79 92 100 101 99 100 100 100 100 100 100 100 100 100 100 100 100 100 100 100 100 100 100 100 100 99 95 92 89 80 71 64 57 53 51 49 50 53 54 53 52 51 50 51 53 51 52
74 76 79 80 82 84 83 80 74 69 66 62 62 69 73 71 72 77 88 98 101 100 100 100 100 100 100 100 100 100 101 100 99 100 100 100 100 100 100 100 100 101 99 96 94 86 73 64 61 59 57 55 54 54 56 58 59 58 56 56 59 60 59
77 79 82 83 84 85 86 86 81 72 68 65 63 70 76 73 68 68 73 85 97 101 100 100 100 99 98 100 101 100 100 100 100 100 100 99 100 100 100 101 100 100 100 99 98 93 81 67 61 60 61 59 58 57 56 58 63 68 68 64 65 67 67
84 85 86 87 88 88 88 89 86 78 75 71 66 71 80 72 64 69 73 74 82 92 96 96 94 91 88 90 96 99 98 97 98 100 100 98 99 100 99 100 100 100 100 100 100 98 87 73 64 62 64 66 67 69 66 62 64 71 73 71 70 70 70
89 91 92 92 92 92 92 92 91 85 82 79 72 74 84 77 64 70 79 75 73 78 83 80 74 68 63 66 80 93 98 97 96 99 101 97 97 100 101 100 99 100 100 100 100 98 90 79 70 67 70 74 73 71 70 68 68 71 73 73 74 73 71
95 96 97 96 96 96 96 96 96 93 92 93 91 89 94 91 78 75 82 84 79 74 71 65 58 51 47 49 61 79 94 99 98 99 101 95 86 87 96 101 100 100 100 100 100 98 91 84 78 72 72 75 72 67 70 74 74 75 79 81 84 84 79
98 98 98 98 99 98 99 100 99 99 99 100 100 99 100 100 95 89 89 92 91 82 70 61 55 51 50 50 54 68 86 97 97 97 100 97 81 71 78 90 97 100 100 98 99 97 91 86 82 77 74 75 75 73 73 76 77 80 87 90 91 91 88
99 100 99 99 100 100 100 101 100 101 101 100 100 100 100 100 100 98 97 97 98 91 79 70 63 60 61 60 57 64 81 94 95 93 97 98 86 74 71 74 81 93 99 97 97 97 93 88 84 80 77 77 78 78 78 80 82 84 88 90 89 89 89
100 100 100 101 101 101 100 99 98 99 101 100 100 100 100 100 100 100 100 99 99 97 93 88 84 81 79 74 68 72 83 92 91 89 94 99 93 85 81 76 73 83 93 94 94 95 94 89 85 82 78 76 77 80 82 85 86 86 87 88 88 86 85
100 100 100 100 100 100 99 97 96 99 101 100 100 100 100 100 100 100 100 100 99 100 99 97 96 96 94 89 84 84 89 94 91 86 91 98 98 94 92 86 80 84 94 97 95 94 91 87 85 82 78 75 76 79 81 84 86 86 87 88 87 85 83
100 100 100 100 100 100 100 99 98 100 101 100 100 100 100 100 100 100 100 100 100 100 98 97 97 97 98 97 94 91 93 97 96 91 92 97 100 99 98 94 87 84 91 99 99 96 92 88 86 83 80 77 76 78 79 80 82 84 86 88 89 89 88
101 101 100 100 100 100 100 99 99 100 100 100 100 100 100 100 100 100 100 100 100 99 98 98 96 94 95 97 97 96 96 97 97 97 98 99 100 100 100 98 89 78 78 86 94 97 96 92 88 85 84 82 80 80 81 83 86 89 90 92 95 97 97
100 100 100 101 100 100 101 100 100 100 100 100 100 99 100 100 100 100 100 100 100 99 99 99 97 95 96 99 100 98 97 99 100 100 100 100 100 100 100 99 92 80 75 78 86 96 99 95 92 91 89 87 86 83 82 86 93 96 94 94 96 98 100
99 97 97 98 97 97 99 98 97 97 97 99 100 99 98 100 100 100 99 100 100 100 100 100 99 99 100 100 100 100 99 100 100 100 100 100 100 99 100 100 95 88 86 85 87 96 99 96 94 93 91 91 91 88 85 87 91 94 94 94 93 94 98
100 97 94 94 93 92 93 93 91 90 91 97 101 99 95 95 98 101 100 100 101 100 99 100 100 100 101 100 100 100 100 100 100 100 100 100 100 100 100 100 94 88 91 94 94 98 100 97 95 93 92 92 92 90 89 88 87 88 90 91 90 91 94
99 98 94 91 90 89 88 89 91 89 88 91 97 98 97 93 92 95 97 97 99 100 100 100 100 99 99 100 100 100 100 100 98 99 100 99 100 101 98 96 92 87 88 91 93 97 101 99 97 94 90 91 93 92 90 90 88 86 85 86 89 89 88
97 98 95 90 88 88 87 87 91 92 89 91 93 94 97 98 93 91 92 91 92 95 97 98 99 100 99 99 100 100 99 96 94 96 100 101 98 96 95 93 92 89 89 91 92 96 100 100 98 96 91 90 93 93 90 90 90 87 83 83 84 85 86
97 97 96 90 85 86 86 86 91 94 94 97 98 93 94 98 96 92 93 94 93 93 94 94 94 95 96 98 100 98 94 92 90 92 98 101 96 91 92 93 91 90 92 95 95 98 101 100 100 100 96 93 93 92 89 88 88 85 83 82 80 79 80
97 97 96 92 88 87 87 88 93 98 98 99 99 97 97 98 94 92 93 96 98 98 97 95 90 86 87 92 98 98 94 92 90 87 92 99 98 92 92 93 92 92 95 98 99 100 100 100 100 100 99 98 95 91 87 85 84 82 81 82 81 78 75
98 97 98 96 93 91 91 93 98 99 95 92 94 99 100 95 89 91 94 94 95 97 97 95 93 90 88 91 97 98 97 97 96 92 92 96 97 95 95 97 96 96 98 99 100 100 100 100 100 100 100 99 96 92 88 83 80 80 80 81 80 79 76
99 98 97 97 97 96 95 97 99 95 90 90 96 100 100 94 91 95 99 98 96 97 98 97 98 98 97 97 98 98 97 96 95 95 95 95 97 97 99 100 100 99 100 100 100 100 100 100 100 100 99 97 94 93 89 84 81 82 82 81 80 79 78
98 98 98 97 98 98 97 98 98 93 90 94 99 100 100 99 99 100 100 99 99 99 100 100 100 100 100 99 99 99 99 96 93 93 93 93 96 97 98 99 101 100 100 100 100 99 100 100 100 100 100 98 96 94 90 86 84 85 87 85 82 81 83
99 99 99 99 99 98 97 99 97 92 91 96 99 100 99 99 99 99 99 100 100 100 100 100 100 100 100 100 100 100 100 99 98 98 96 95 96 97 97 99 100 99 99 100 100 100 100 100 100 100 100 100 99 97 94 89 86 86 90 90 85 86 92
100 100 100 100 100 99 99 100 96 91 95 100 100 99 98 96 96 98 99 100 100 100 100 100 100 100 100 99 99 100 100 100 100 100 100 99 99 99 100 100 100 100 99 100 100 100 100 100 100 100 100 100 100 100 98 95 90 89 92 92 89 90 97
100 100 100 100 100 100 100 101 97 94 98 100 97 96 97 96 98 99 99 100 100 100 100 99 98 98 99 99 98 99 100 100 100 99 100 100 100 100 100 100 100 100 100 100 100 100 100 100 100 100 100 100 100 100 100 99 95 92 93 94 91 92 94
100 100 100 100 100 99 98 100 100 99 100 100 98 98 99 99 100 100 99 100 100 99 96 95 95 97 99 99 99 100 100 100 100 99 100 100 100 100 100 100 100 100 100 100 100 100 100 100 100 100 100 100 100 100 101 100 97 94 94 93 91 91 92
100 100 100 100 100 97 95 96 98 98 98 98 98 98 99 99 100 100 99 98 97 96 94 94 96 99 100 100 100 100 100 100 100 100 100 100 100 100 101 100 100 100 100 100 100 100 100 100 100 100 100 100 100 101 101 101 98 95 94 92 90 90 89
100 100 99 100 100 98 95 95 96 96 96 96 97 98 100 100 99 99 98 95 92 93 96 97 98 100 100 100 100 100 100 100 100 100 100 100 100 101 101 101 101 100 100 100 100 100 101 101 100 100 100 100 100 100 101 100 97 94 91 89 89 88 85
96 100 100 100 100 99 99 98 98 98 98 98 99 99 98 96 95 94 94 92 90 92 98 100 100 100 100 100 100 100 100 100 100 100 100 100 100 100 100 101 101 101 100 100 100 100 100 100 100 100 100 101 100 99 99 97 93 89 85 82 82 82 80
88 94 98 101 100 99 100 100 99 100 100 100 100 100 96 92 90 90 89 89 91 95 99 100 100 101 100 100 100 100 100 100 100 100 99 99 99 100 100 100 101 101 101 101 101 100 99 100 100 100 100 100 99 96 94 92 87 82 79 76 76 78 78
92 92 95 100 101 100 100 100 99 100 100 99 98 95 89 86 88 90 91 91 92 95 99 100 100 100 100 100 100 99 99 99 99 99 97 96 97 99 100 100 100 101 101 101 100 100 99 99 100 100 98 97 94 91 87 83 79 76 74 72 73 75 77
98 96 94 96 99 99 99 100 100 101 101 99 96 89 85 87 93 97 97 97 97 97 98 99 100 99 99 99 99 98 98 98 98 98 98 97 96 98 99 100 100 100 100 101 101 101 100 100 99 98 96 93 90 85 81 76 73 73 72 70 69 71 71
Wind_Speed
25 25 25 26 26 27 29 30 30 27 23 21 22 21 22 24 25 25 26 26 26 27 27 25 23 23 24 23 23 25 26 27 26 24 23 22 23 23 24 23 18 10 7 10 15 18 20 23 25 25 27 30 33 35 36 36 36 36 36 35 35 35 35
25 24 25 26 27 28 29 28 25 20 17 18 20 19 17 20 24 25 25 24 25 26 24 24 22 22 23 22 24 25 26 26 24 22 21 21 21 21 23 24 21 16 10 8 13 18 18 20 24 26 27 30 32 34 35 35 36 35 34 34 34 34 35
22 21 22 25 27 26 24 21 18 18 19 21 21 21 19 18 21 26 26 24 24 25 24 22 22 22 22 22 22 23 23 23 22 21 20 20 21 21 22 24 24 20 15 10 12 17 19 20 23 26 28 30 31 32 33 34 35 34 33 33 33 33 35
20 20 21 23 23 20 17 18 21 23 24 22 21 23 24 21 19 21 25 25 23 24 23 22 21 21 21 21 21 21 21 21 21 21 20 20 20 21 22 23 25 25 21 15 12 15 20 22 24 26 27 28 30 30 30 31 30 30 30 31 31 32 34
22 21 21 22 21 20 21 24 25 25 25 25 23 24 25 23 21 19 20 22 23 23 23 22 21 21 20 20 21 21 20 21 21 21 21 20 20 21 22 22 24 26 25 20 14 14 18 21 23 24 25 28 29 28 26 26 26 27 27 27 28 30 32
24 23 23 24 24 25 26 26 26 25 26 28 28 26 25 24 22 20 17 17 21 23 22 21 21 20 20 21 21 21 20 21 22 22 22 21 21 21 22 22 22 24 25 23 19 15 17 19 22 22 23 26 29 28 26 24 23 23 25 26 26 28 29
25 25 25 26 26 26 27 26 27 27 27 28 29 26 23 23 23 21 19 17 17 19 19 19 19 19 19 21 21 22 21 21 22 23 23 23 22 21 21 21 21 22 22 22 20 16 17 20 22 22 21 25 28 27 26 26 23 21 22 24 25 26 27
24 25 26 26 26 26 27 27 27 28 28 29 29 26 24 24 24 22 20 19 16 16 17 17 18 18 18 20 21 22 22 22 23 23 24 24 22 21 21 20 20 20 20 20 18 16 17 19 20 19 18 21 23 21 22 26 26 23 23 23 23 25 26
24 25 26 27 27 26 26 26 27 28 27 28 29 27 24 24 24 22 20 20 18 17 17 17 17 18 18 19 20 22 23 23 24 24 25 25 23 22 21 19 19 19 18 18 16 14 17 17 17 18 18 19 24 25 24 24 23 21 22 24 22 23 25
24 25 25 26 26 26 25 26 26 26 25 25 26 25 23 21 22 22 20 20 20 19 18 18 18 19 19 20 20 22 23 24 25 25 26 27 24 22 21 20 18 18 18 17 14 14 16 14 14 19 22 23 28 28 23 23 23 21 20 21 17 17 21
24 25 25 25 25 25 24 24 24 23 23 23 23 24 23 21 21 21 20 20 21 21 20 20 20 21 21 21 21 22 23 24 25 25 26 28 25 21 20 20 19 18 18 17 14 14 17 16 16 22 25 25 26 26 22 25 27 23 22 21 15 12 16
25 25 25 25 24 23 23 24 23 22 22 23 22 23 23 23 22 22 22 22 22 23 23 22 22 23 23 23 22 22 23 24 25 25 25 27 26 23 21 20 19 20 20 19 17 15 17 19 20 23 26 25 25 25 24 23 23 24 25 25 21 15 15
26 25 25 24 24 24 25 25 24 22 22 22 22 21 22 23 24 24 25 24 24 24 24 24 24 24 25 24 23 23 24 25 25 24 25 27 27 26 24 21 20 22 23 22 21 18 20 23 23 23 27 30 28 27 25 21 21 24 25 24 23 22 20
26 26 25 24 24 25 25 24 22 20 20 21 21 21 22 24 25 26 26 27 27 25 25 25 25 24 24 25 24 24 26 27 26 25 26 27 27 27 27 25 22 22 24 24 24 23 24 27 27 26 29 31 30 28 27 26 25 26 25 23 21 21 19
25 25 25 25 23 24 24 23 20 18 18 19 20 20 21 23 26 27 28 29 29 28 28 26 25 24 24 24 25 26 26 27 28 27 27 27 26 26 27 28 26 23 23 24 24 25 26 27 28 28 29 29 29 29 29 28 28 26 25 22 18 16 16
25 25 25 25 23 23 24 23 19 17 16 17 19 21 23 25 26 27 28 29 29 29 28 27 26 26 25 26 27 27 27 27 27 28 27 26 25 25 26 28 27 23 21 22 23 24 25 25 25 27 27 26 27 28 28 25 22 22 22 20 15 13 16
28 27 25 24 22 21 23 23 21 18 17 17 15 15 21 26 28 27 28 28 28 28 27 27 28 27 27 27 27 28 27 26 26 26 26 25 24 24 25 27 28 25 21 19 20 22 23 23 22 22 23 24 24 26 27 24 21 22 24 20 12 9 14
28 27 25 23 22 21 21 22 21 18 17 17 15 9 6 13 20 24 26 26 26 26 27 27 28 28 28 28 28 27 26 25 25 25 25 24 24 23 23 25 27 25 22 20 18 20 22 23 22 20 20 22 23 25 28 27 25 26 26 21 13 10 13
26 27 26 24 23 21 20 20 19 17 16 16 15 11 7 3 5 12 17 19 20 21 22 23 24 26 27 27 26 25 24 24 25 26 26 26 24 22 23 26 27 25 24 22 20 20 22 23 23 22 21 22 23 24 26 28 28 28 28 23 18 17 14
25 26 27 25 24 22 21 20 19 17 14 14 13 11 8 5 3 1 4 7 9 11 14 16 18 20 22 23 23 22 22 23 25 27 28 26 24 23 25 28 29 28 26 25 23 22 23 23 23 23 22 23 24 25 26 27 27 28 29 25 22 22 18
25 25 26 27 25 24 22 20 18 17 15 13 13 10 8 5 5 4 4 5 6 7 9 11 13 15 17 19 21 22 22 23 25 27 29 28 27 27 27 27 28 29 27 24 24 22 22 23 24 23 23 24 25 26 26 27 27 25 26 26 24 24 22
24 24 27 28 27 26 24 21 18 16 14 13 12 11 8 6 5 5 6 7 8 9 10 11 12 13 14 16 18 20 22 24 25 27 28 29 29 29 27 25 26 27 25 23 24 23 21 22 24 24 24 24 25 26 25 26 26 24 24 25 25 24 23
25 25 26 27 28 27 26 23 19 16 14 12 11 10 8 6 6 7 8 10 10 11 11 12 13 12 13 14 16 18 21 22 25 27 28 28 29 30 28 26 24 24 24 23 23 22 20 21 23 24 24 24 25 26 26 26 25 25 24 24 23 22 22
24 23 22 24 25 26 26 24 20 16 11 8 7 7 6 7 8 9 10 11 12 12 12 13 13 12 13 14 15 17 19 20 21 23 23 24 27 29 29 27 24 24 24 23 22 22 21 22 24 25 25 25 25 25 26 26 25 24 24 23 22 21 21
22 22 21 20 20 22 23 22 18 13 8 5 5 4 4 6 7 7 8 9 10 11 12 13 12 12 12 12 13 15 16 17 18 19 20 21 24 28 29 27 25 24 23 22 21 22 22 23 25 26 28 28 27 26 27 27 25 23 23 22 21 20 19
21 21 20 18 18 19 21 19 15 11 7 7 8 7 3 1 1 1 3 5 6 6 6 6 6 7 7 8 9 11 13 15 17 18 19 19 21 25 29 29 27 25 24 23 23 23 23 24 25 27 29 29 29 29 29 28 26 24 22 22 21 19 17
21 19 17 17 18 20 20 17 13 10 9 10 11 8 4 3 3 2 0 1 2 2 2 2 3 4 4 4 4 5 7 9 11 13 16 18 19 21 24 26 28 29 28 26 26 25 25 27 27 27 28 29 29 30 29 28 28 26 23 22 22 20 18
18 18 19 19 19 20 18 14 12 11 11 11 9 7 6 5 5 4 4 3 2 3 3 4 6 6 6 6 6 6 6 6 6 7 9 12 14 16 18 19 22 25 25 25 27 28 28 29 29 28 29 29 28 28 28 27 27 27 25 24 22 20 19
20 22 23 22 22 21 17 13 12 11 9 8 9 9 8 8 8 7 7 5 4 4 5 6 6 7 7 7 8 9 9 10 11 10 10 9 9 11 13 15 18 21 23 25 28 30 29 29 28 27 28 29 27 26 26 26 27 27 25 24 21 20 20
23 25 26 26 26 21 14 10 10 9 9 11 11 10 10 10 9 8 7 5 3 3 5 7 8 9 8 8 9 9 9 10 12 13 13 12 12 12 13 15 17 20 22 24 27 28 28 28 28 26 26 27 27 25 24 24 25 26 26 24 21 19 19
25 27 28 30 29 20 11 9 10 12 13 13 12 12 11 10 9 8 7 5 2 4 7 8 9 9 8 9 10 10 9 10 12 13 14 14 14 14 14 16 17 19 22 24 25 26 26 27 27 27 26 26 27 26 24 23 24 24 24 23 23 22 21
27 29 29 32 31 21 13 12 14 14 13 13 12 11 11 10 9 8 6 5 2 6 9 9 9 9 8 9 10 10 10 10 12 13 14 15 15 14 14 15 17 19 21 23 24 25 25 25 26 27 26 27 28 27 25 23 23 23 22 20 20 20 21
28 29 29 31 32 27 21 18 16 15 14 13 11 10 10 9 9 7 6 4 4 8 9 8 9 9 8 9 10 10 11 11 12 13 14 15 15 14 13 14 15 17 19 21 22 23 23 24 25 26 26 26 27 27 27 25 24 22 21 20 18 17 18
30 31 30 29 30 28 26 23 21 19 16 14 12 11 9 8 8 8 8 7 7 9 9 8 9 9 9 10 10 10 11 12 12 13 14 14 14 13 13 13 14 16 17 20 21 22 23 23 24 26 27 26 24 24 25 25 24 23 21 20 19 18 18
28 29 28 27 27 26 25 23 22 21 19 16 13 10 9 9 11 13 12 11 10 9 8 8 9 9 9 10 10 10 10 11 11 11 12 13 13 12 12 13 14 15 16 18 21 23 24 24 25 25 26 26 26 24 24 23 23 22 22 21 20 20 20
25 26 26 27 28 26 23 21 21 20 19 19 17 13 13 15 15 15 14 12 10 8 8 8 7 7 8 8 9 9 9 9 10 10 11 12 12 12 13 14 14 15 16 17 19 21 23 25 26 26 26 26 25 24 23 23 21 20 20 21 21 22 22
Wind_Direction
289 287 285 282 279 276 277 279 279 278 277 283 292 282 259 252 255 255 253 251 248 245 240 237 235 235 235 236 236 233 231 231 232 234 233 231 228 225 224 221 217 225 235 212 210 220 226 227 226 223 224 223 223 226 228 229 231 231 230 230 231 231 232
287 286 285 283 280 276 276 277 276 277 284 294 302 300 281 260 252 250 250 247 243 242 241 236 233 234 236 236 236 233 227 225 225 227 230 230 230 227 225 222 217 220 231 215 203 211 216 217 217 218 221 221 222 224 224 224 226 228 230 231 232 231 232
287 286 286 287 283 278 275 278 282 289 296 299 301 304 304 289 262 245 241 242 240 238 237 233 229 231 234 236 237 235 228 223 223 226 227 229 231 230 229 227 221 220 226 220 207 208 210 209 209 214 218 221 223 224 222 222 224 225 226 229 230 230 231
290 290 291 290 287 284 286 290 294 295 296 297 298 297 300 304 290 259 240 236 238 235 230 226 224 227 232 233 233 234 230 225 224 225 226 229 231 231 231 230 225 223 226 225 212 205 209 210 208 210 216 217 217 218 220 221 221 222 224 225 227 228 229
290 289 289 288 289 293 295 294 293 293 293 292 294 295 295 298 301 286 255 238 238 236 229 224 223 225 229 229 229 231 230 227 225 224 224 227 230 230 230 230 227 225 227 228 218 201 203 207 206 207 212 213 209 208 213 217 219 220 221 222 224 226 228
288 287 285 285 286 288 288 288 288 288 288 288 289 292 292 291 294 296 284 258 243 237 234 232 230 231 231 229 227 228 229 230 228 225 222 224 228 230 229 227 225 224 225 227 224 206 193 196 198 200 205 209 207 203 201 205 211 217 221 221 221 222 225
288 287 286 285 283 282 282 283 283 281 281 283 284 285 286 287 287 290 290 278 258 245 241 239 237 237 236 233 230 229 230 231 230 227 224 223 225 227 227 225 222 221 220 222 222 209 192 191 195 196 199 203 204 203 202 199 197 203 213 217 218 219 220
288 287 287 285 282 280 279 278 278 277 275 275 277 277 277 279 281 282 281 279 270 256 246 242 240 240 241 242 239 235 233 232 231 229 226 226 225 223 224 223 220 219 218 218 217 207 193 190 190 190 191 191 190 193 201 201 196 194 199 204 211 217 219
287 286 286 285 283 280 278 276 274 274 273 271 271 271 268 268 272 274 273 272 270 262 253 248 245 246 247 249 247 243 239 235 234 231 228 227 224 220 220 222 220 218 215 215 214 201 188 184 184 185 180 177 186 195 200 198 193 191 193 196 201 210 217
288 286 284 283 283 281 278 275 273 272 269 264 263 262 259 258 263 264 264 264 264 261 257 253 252 253 253 252 251 248 244 239 237 234 232 230 227 221 218 218 218 217 213 212 210 193 183 180 181 187 186 185 195 201 198 190 188 187 185 184 189 202 211
290 288 287 285 283 280 277 275 272 269 264 260 256 254 252 250 254 256 256 257 259 259 258 256 256 257 256 253 251 247 244 242 239 237 235 232 229 226 222 218 218 218 214 212 209 196 188 185 185 191 194 195 196 195 193 192 191 185 175 174 182 197 205
295 293 293 291 285 280 278 278 275 268 263 260 255 250 248 246 246 249 251 251 253 254 256 257 257 258 256 254 250 245 243 240 239 239 236 231 229 229 228 224 224 224 218 212 209 200 193 195 194 193 195 197 195 192 192 193 191 186 181 181 187 193 199
301 301 299 295 291 287 286 286 284 276 267 262 256 249 246 243 242 244 246 247 248 249 251 253 254 255 255 254 250 245 242 238 237 238 237 231 228 230 230 228 228 230 228 223 215 206 204 206 202 196 200 203 199 192 187 185 188 190 190 189 191 195 198
305 305 304 301 299 296 294 295 295 287 273 263 256 249 243 240 239 240 241 242 243 244 246 248 248 248 250 250 248 243 239 236 234 234 234 231 229 230 230 229 227 228 230 230 221 214 216 217 211 208 211 210 203 196 191 190 192 193 194 194 195 197 200
311 311 312 311 307 302 301 304 308 302 285 269 258 249 242 237 235 235 237 238 239 240 242 243 242 243 244 245 245 241 236 233 231 230 229 229 229 229 229 228 225 224 226 228 225 220 221 222 219 217 218 214 208 205 203 201 200 197 194 191 188 186 190
319 318 317 317 315 310 308 314 320 315 299 280 264 251 242 236 232 230 232 234 236 237 238 239 239 239 240 240 241 239 234 231 229 225 222 222 224 227 228 227 225 224 225 228 229 226 224 226 226 223 221 219 213 208 204 200 196 193 186 177 168 168 177
326 327 325 322 320 315 311 315 321 320 312 306 295 265 241 234 229 226 227 230 233 234 236 237 236 236 236 236 238 239 235 229 225 221 217 216 219 222 223 224 223 222 223 227 230 228 226 228 229 225 224 222 216 210 204 193 184 185 181 171 163 167 177
330 332 331 327 324 322 317 317 322 325 324 329 339 339 269 235 225 219 221 225 230 232 233 234 234 233 233 234 237 238 235 228 220 216 214 213 214 216 216 217 219 217 215 218 223 224 224 226 226 222 220 219 214 211 208 199 192 188 181 174 175 171 167
327 327 329 330 330 329 328 325 329 334 332 331 340 355 3 335 218 211 215 220 225 228 230 230 231 233 233 234 236 237 235 228 219 213 213 213 209 209 212 215 216 216 213 210 211 214 215 217 218 214 211 211 211 211 210 209 204 196 186 182 180 168 155
326 325 329 334 335 335 336 334 334 336 332 326 329 341 352 354 348 263 225 229 231 232 232 232 234 236 236 236 236 235 233 229 223 216 215 212 206 207 214 217 217 219 219 213 209 211 209 205 205 205 202 202 205 208 209 210 209 204 197 190 180 174 174
329 327 329 335 337 337 340 340 337 335 329 318 315 324 334 333 323 316 306 292 276 263 255 247 241 240 241 238 236 235 232 231 230 223 216 211 211 214 217 218 219 221 220 215 212 210 204 196 193 195 197 198 201 205 207 207 208 209 206 198 190 185 185
331 331 331 335 337 336 339 340 337 331 324 313 305 305 308 304 296 294 290 284 278 272 267 261 253 249 247 242 239 239 239 237 236 229 219 214 217 220 218 216 220 219 213 210 210 206 199 190 186 186 190 194 196 201 206 207 207 209 210 207 206 203 198
333 332 329 330 332 334 335 335 332 328 321 309 299 293 290 280 270 270 270 266 266 267 267 267 265 260 254 249 244 244 245 244 242 237 227 218 218 221 217 213 212 209 202 201 202 200 194 188 185 184 185 188 191 196 201 203 204 207 207 204 206 209 211
329 328 323 321 323 328 330 329 330 333 330 313 297 287 280 272 264 260 259 258 259 261 263 265 267 264 261 258 253 249 249 250 250 247 239 224 217 219 217 209 202 198 196 194 193 192 191 190 188 186 185 187 191 195 196 196 197 200 202 201 201 202 205
322 321 317 313 313 319 324 327 334 341 336 324 335 333 288 272 269 263 255 253 255 257 257 258 259 259 256 255 254 252 251 251 251 251 248 233 219 216 213 207 200 195 191 188 188 189 190 189 188 187 187 189 193 194 192 190 188 188 192 194 195 194 195
319 316 312 310 313 318 321 328 342 351 345 346 360 8 9 310 298 266 244 244 246 251 252 249 246 244 243 245 250 251 250 250 247 245 246 240 227 218 212 205 198 193 190 189 189 189 187 185 184 185 185 186 187 188 188 186 183 179 179 184 185 180 176
318 319 318 318 322 323 323 332 349 358 355 355 359 10 35 52 45 37 354 226 202 195 191 169 162 173 185 197 213 223 228 233 232 229 230 234 233 226 217 208 200 197 196 194 190 185 181 180 180 181 181 179 179 180 181 182 181 176 171 174 177 168 158
326 330 330 328 325 323 327 343 359 356 350 355 6 26 46 43 35 44 58 70 107 139 146 142 137 134 133 134 127 119 121 130 142 163 187 205 217 223 221 214 204 196 193 190 185 178 174 173 173 174 174 173 173 173 174 176 178 175 169 169 169 160 151
343 341 340 337 332 328 332 344 352 351 358 18 36 47 52 49 48 53 57 57 78 116 123 117 107 96 92 98 99 98 97 100 105 108 116 134 160 180 189 192 189 182 179 178 176 171 166 164 163 163 164 165 165 166 168 171 172 170 166 165 164 158 157
351 350 351 349 344 343 346 349 355 14 41 53 55 56 56 55 53 51 48 44 59 106 103 92 81 73 74 84 89 90 90 95 102 103 100 104 118 132 145 155 162 165 165 165 165 162 159 157 156 155 156 158 157 157 161 166 169 168 166 164 162 156 157
358 359 359 358 357 2 17 29 38 56 62 56 54 54 51 48 47 48 42 25 27 87 89 86 83 77 77 85 87 84 86 93 100 103 101 101 105 114 125 135 142 149 153 154 154 154 154 155 155 155 156 157 155 153 156 159 162 164 164 165 165 163 164
3 2 2 4 8 18 45 59 62 67 63 55 53 53 51 50 49 47 31 3 33 90 88 88 92 89 84 89 90 89 94 99 100 103 106 106 103 106 117 128 136 144 150 150 150 150 151 153 155 155 156 156 155 153 152 153 156 158 161 162 163 165 168
9 5 4 7 12 22 39 51 56 59 56 53 51 49 49 51 47 40 25 17 76 98 94 91 97 96 91 95 97 97 103 106 105 107 109 109 108 109 115 126 138 146 150 149 149 150 150 152 155 155 153 152 153 154 153 153 155 158 160 159 158 159 165
6 8 8 8 11 19 29 35 38 40 40 40 39 35 33 40 48 51 52 60 81 90 89 91 96 97 99 103 105 107 111 113 113 115 116 114 115 117 122 131 141 146 148 149 151 152 152 154 155 155 152 150 150 151 152 153 157 159 160 159 159 159 162
355 2 7 9 11 16 24 28 31 35 36 33 33 31 32 44 55 57 57 61 66 69 76 88 96 100 107 113 115 118 121 121 120 122 125 125 126 130 134 139 143 145 146 151 154 155 157 158 157 155 154 153 152 152 152 154 158 162 163 163 162 160 160
349 355 3 10 14 17 23 26 29 35 41 41 41 46 50 53 55 54 54 58 61 63 74 86 94 104 114 119 123 125 127 128 127 128 132 135 136 141 145 148 150 151 151 153 155 156 157 158 157 157 157 155 153 155 158 158 161 163 165 165 165 163 163